SP5MRF Weather Reports


time (UTC)temp
C
wind
direction
speed
KPH
gust
KPH
rain 1hr
cm
rain 24hr
cm
rain mn
cm
humidity
%
barometer
mb
20260503214959 14 0 0.0 0.0 0.00 0.00 0.00 44 1009.7
20260503214159 14 0 0.0 0.0 0.00 0.00 0.00 44 1009.7
20260503213400 14 0 0.0 0.0 0.00 0.00 0.00 44 1009.7
20260503212600 14 0 0.0 0.0 0.00 0.00 0.00 43 1009.6
20260503211800 15 0 0.0 0.0 0.00 0.00 0.00 42 1009.7
20260503211000 15 0 0.0 0.0 0.00 0.00 0.00 41 1009.6
20260503210200 15 0 0.0 0.0 0.00 0.00 0.00 41 1009.6
20260503205400 16 0 0.0 0.0 0.00 0.00 0.00 40 1009.7
20260503204600 16 0 0.0 0.0 0.00 0.00 0.00 40 1009.5
20260503203800 16 0 0.0 0.0 0.00 0.00 0.00 40 1009.5
20260503203000 16 0 0.0 0.0 0.00 0.00 0.00 39 1009.5
20260503202201 16 0 0.0 0.0 0.00 0.00 0.00 39 1009.4
20260503201400 16 0 0.0 0.0 0.00 0.00 0.00 38 1009.3
20260503200601 16 0 0.0 0.0 0.00 0.00 0.00 38 1009.3
20260503195800 16 0 0.0 0.0 0.00 0.00 0.00 38 1009.4
20260503195000 16 0 0.0 0.0 0.00 0.00 0.00 38 1009.4
20260503194200 17 0 0.0 0.0 0.00 0.00 0.00 37 1009.4
20260503193400 17 0 0.0 0.0 0.00 0.00 0.00 36 1009.5
20260503192600 17 0 0.0 0.0 0.00 0.00 0.00 36 1009.4
20260503191800 17 0 0.0 0.0 0.00 0.00 0.00 35 1009.4
20260503191000 17 0 0.0 0.0 0.00 0.00 0.00 34 1009.4
20260503190200 18 0 0.0 0.0 0.00 0.00 0.00 33 1009.4
20260503185401 18 0 0.0 0.0 0.00 0.00 0.00 33 1009.4
20260503184600 19 0 0.0 0.0 0.00 0.00 0.00 32 1009.5
20260503183800 20 0 0.0 0.0 0.00 0.00 0.00 31 1009.4
20260503183000 20 0 0.0 0.0 0.00 0.00 0.00 31 1009.3
20260503182200 20 0 0.0 0.0 0.00 0.00 0.00 30 1009.4
20260503181400 21 0 0.0 0.0 0.00 0.00 0.00 30 1009.3
20260503180600 22 0 0.0 0.0 0.00 0.00 0.00 29 1009.3
20260503175800 22 0 0.0 0.0 0.00 0.00 0.00 29 1009.2
20260503175001 23 0 0.0 0.0 0.00 0.00 0.00 28 1009.1
20260503174200 23 0 0.0 0.0 0.00 0.00 0.00 28 1009.2
20260503173400 24 0 0.0 0.0 0.00 0.00 0.00 27 1009.1
20260503172600 24 0 0.0 0.0 0.00 0.00 0.00 27 1009.0
20260503171800 25 0 0.0 0.0 0.00 0.00 0.00 27 1009.1
20260503171000 25 0 0.0 0.0 0.00 0.00 0.00 26 1009.0
20260503170200 25 0 0.0 8.0 0.00 0.00 0.00 25 1009.0
20260503151000 26 292 0.0 4.8 0.00 0.00 0.00 26 1009.3
20260503150200 26 0 0.0 3.2 0.00 0.00 0.00 26 1009.5
20260503131000 28 0 0.0 6.4 0.00 0.00 0.00 22 1010.7
20260503130200 28 315 1.6 6.4 0.00 0.00 0.00 22 1010.8
20260503110200 27 22 6.4 9.7 0.00 0.00 0.00 26 1012.4
20260503090200 23 337 0.0 9.7 0.00 0.00 0.00 32 1014.1
20260503081401 22 0 4.8 4.8 0.00 0.00 0.00 35 1014.4
20260503080600 22 22 9.7 9.7 0.00 0.00 0.00 35 1014.4
20260503072603 21 22 0.0 8.0 0.00 0.00 0.00 39 1014.6
20260503071801 21 0 6.4 9.7 0.00 0.00 0.00 39 1014.7
20260503071001 20 337 6.4 6.4 0.00 0.00 0.00 40 1014.7
20260503070201 20 0 0.0 8.0 0.00 0.00 0.00 42 1014.7
20260503055001 16 337 0.0 0.0 0.00 0.00 0.00 56 1014.8
20260503054201 15 337 0.0 0.0 0.00 0.00 0.00 58 1015.0
20260503053401 15 337 0.0 0.0 0.00 0.00 0.00 59 1015.0
20260503052601 14 337 0.0 0.0 0.00 0.00 0.00 61 1014.9
20260503051801 13 337 0.0 0.0 0.00 0.00 0.00 63 1015.1
20260503051001 12 0 0.0 0.0 0.00 0.00 0.00 65 1014.9
20260503050201 12 337 0.0 0.0 0.00 0.00 0.00 66 1015.1
20260503045401 11 337 0.0 0.0 0.00 0.00 0.00 67 1015.0
20260503044601 10 337 0.0 0.0 0.00 0.00 0.00 69 1015.0
20260503043801 9 0 0.0 0.0 0.00 0.00 0.00 68 1015.1
20260503043001 8 0 0.0 0.0 0.00 0.00 0.00 68 1015.0
20260503042201 8 0 0.0 0.0 0.00 0.00 0.00 68 1014.9
20260503041401 7 0 0.0 0.0 0.00 0.00 0.00 67 1015.0
20260503035801 7 0 0.0 0.0 0.00 0.00 0.00 67 1014.8
20260503035001 7 0 0.0 0.0 0.00 0.00 0.00 66 1014.9
20260503034201 7 0 0.0 0.0 0.00 0.00 0.00 66 1015.0
20260503033401 6 0 0.0 0.0 0.00 0.00 0.00 66 1014.7
20260503032601 6 0 0.0 0.0 0.00 0.00 0.00 65 1014.8
20260503031801 6 0 0.0 0.0 0.00 0.00 0.00 65 1014.7
20260503031001 6 0 0.0 0.0 0.00 0.00 0.00 65 1014.7
20260503030201 6 0 0.0 0.0 0.00 0.00 0.00 65 1014.6
20260503025401 6 0 0.0 0.0 0.00 0.00 0.00 64 1014.7
20260503023801 7 0 0.0 0.0 0.00 0.00 0.00 64 1014.8
20260503022201 7 0 0.0 0.0 0.00 0.00 0.00 63 1014.6
20260503021401 7 0 0.0 0.0 0.00 0.00 0.00 63 1014.7
20260503020601 7 0 0.0 0.0 0.00 0.00 0.00 63 1014.7
20260503015001 7 0 0.0 0.0 0.00 0.00 0.00 62 1014.7
20260503014201 7 0 0.0 0.0 0.00 0.00 0.00 61 1014.9
20260503013401 7 0 0.0 0.0 0.00 0.00 0.00 61 1014.8
20260503011801 7 0 0.0 0.0 0.00 0.00 0.00 60 1014.7
20260503011001 7 0 0.0 0.0 0.00 0.00 0.00 60 1014.7
20260503010201 8 0 0.0 0.0 0.00 0.00 0.00 59 1014.7
20260503005402 8 0 0.0 0.0 0.00 0.00 0.00 59 1014.8
20260503004602 8 0 0.0 0.0 0.00 0.00 0.00 59 1014.7
20260503003802 8 0 0.0 0.0 0.00 0.00 0.00 59 1014.8
20260503003001 8 0 0.0 0.0 0.00 0.00 0.00 59 1014.7
20260503002201 8 0 0.0 0.0 0.00 0.00 0.00 58 1014.6
20260503001401 8 0 0.0 0.0 0.00 0.00 0.00 59 1014.8
20260503000601 8 0 0.0 0.0 0.00 0.00 0.00 59 1014.6
20260502235801 8 0 0.0 0.0 0.00 0.00 0.00 59 1014.6
20260502235001 8 0 0.0 0.0 0.00 0.00 0.00 58 1014.7
20260502234201 8 0 0.0 0.0 0.00 0.00 0.00 58 1014.7
20260502233401 8 0 0.0 0.0 0.00 0.00 0.00 58 1014.7
20260502232601 8 0 0.0 0.0 0.00 0.00 0.00 57 1014.7
20260502231801 8 0 0.0 0.0 0.00 0.00 0.00 57 1014.7
20260502231001 9 0 0.0 0.0 0.00 0.00 0.00 57 1014.8
20260502230201 9 0 0.0 0.0 0.00 0.00 0.00 56 1014.8
20260502225401 9 0 0.0 0.0 0.00 0.00 0.00 56 1014.9
20260502223801 9 337 0.0 0.0 0.00 0.00 0.00 54 1014.6
20260502223001 10 337 0.0 0.0 0.00 0.00 0.00 54 1014.7
20260502222201 10 337 0.0 0.0 0.00 0.00 0.00 53 1014.9
20260502221401 10 337 0.0 0.0 0.00 0.00 0.00 54 1014.8
20260502220601 10 337 0.0 0.0 0.00 0.00 0.00 53 1014.9
20260502215801 10 337 0.0 0.0 0.00 0.00 0.00 52 1014.9